AirNav   Duncan Aviation - Near you to keep you flying
 
 1227 users online  

17CL Las Trancas Airport
Davenport, California, USA

GOING TO DAVENPORT?


FAA INFORMATION EFFECTIVE 21 APRIL 2022

Location

FAA Identifier: 17CL
Lat/Long: 37-05-16.8120N 122-16-24.8950W
37-05.280200N 122-16.414917W
37.0880033,-122.2735819
(estimated)
Elevation: 125 ft. / 38 m (estimated)
Variation: 16E (1985)
From city: 6 miles NW of DAVENPORT, CA
Time zone: UTC -7 (UTC -8 during Standard Time)
Zip code: 95017

Airport Operations

Airport use: Private use. Permission required prior to landing
Activation date: 01/1967
Control tower: no
ARTCC: OAKLAND CENTER
FSS: OAKLAND FLIGHT SERVICE STATION
Attendance: UNATNDD
Wind indicator: yes
Segmented circle: no

Nearby radio navigation aids

VOR radial/distance  VOR name  Freq  Var
OSIr162/18.3WOODSIDE VOR/DME113.9017E
SJCr206/23.3SAN JOSE VOR/DME114.1016E
SFOr154/32.2SAN FRANCISCO VOR/DME115.8017E
OAKr167/38.3OAKLAND VOR/DME116.8017E

Airport Services

Airframe service: NONE
Powerplant service: NONE

Runway Information

Runway 14/32

Dimensions: 1300 x 30 ft. / 396 x 9 m
Surface: gravel
RUNWAY 14  RUNWAY 32
Traffic pattern: rightleft

Airport Ownership and Management from official FAA records

Ownership: Privately-owned
Owner: BIG CREEK LUMBER CO
3564 HWY 1
DAVENPORT, CA 95017
Phone (831) 457-5015
Manager: KENNETH MC CRARY
3564 HWY 1
DAVENPORT, CA 95017
Phone (831) 457-5028

Airport Operational Statistics

Aircraft based on the field: 1
Single engine airplanes: 1
    

Additional Remarks

TURBULENCE SW END DURING NW WIND IN EXCESS OF 15 KTS.
P-LINE 200' E OF RWY.
PHONE OR CONTACT OWNER BEFORE LANDING.
FOR CD CTC NORCAL APCH AT 916-361-3748.

Instrument Procedures

There are no published instrument procedures at 17CL.

Some nearby airports with instrument procedures:

KNUQ - Moffett Federal Airfield (22 nm NE)
KSJC - Norman Y Mineta San Jose International Airport (23 nm NE)
KPAO - Palo Alto Airport (24 nm N)
KWVI - Watsonville Municipal Airport (25 nm E)
KSQL - San Carlos Airport (25 nm N)
 
Loc | Ops | Rwys | IFR | FBO | Links
Com | Nav | Svcs | Stats | Notes
Area around 17CL (Las Trancas Airport)
 
Road maps at: MapQuest Bing Google
 
Aerial photo
WARNING: Photo may not be current or correct
Aerial photo of 17CL (Las Trancas Airport)
Photo by Kenneth and Gabrielle Adelman
Photo taken 04-Oct-2013
looking northeast.

Do you have a better or more recent aerial photo of Las Trancas Airport that you would like to share? If so, please send us your photo.

 
Sectional chart

 
Airport distance calculator
Flying to Las Trancas Airport? Find the distance to fly.

From to 17CL

Sunrise and sunset
Times for 18-May-2022
 Local
(UTC-7)
 Zulu
(UTC)
Morning civil twilight05:3012:30
Sunrise05:5912:59
Sunset20:1203:12
Evening civil twilight20:4103:41

Current date and time
Zulu (UTC)  19-May-2022 00:39:30
Local (UTC-7)  18-May-2022 17:39:30
 
METAR
KNUQ 
23nm NE 
190015Z AUTO 34012KT 10SM CLR 25/12 A2997 RMK AO2
KSJC 
24nm NE 
182353Z 34017KT 10SM FEW080 SCT110 SCT160 29/08 A2997 RMK AO2 SLP148 T02890078 10300 20211 56019
KPAO 
24nm N 
182247Z 34011KT 10SM SKC 28/12 A3000
KWVI 
25nm E 
182353Z AUTO 19006KT 10SM CLR 23/11 A2999 RMK AO2 SLP154 T02280106 10239 20178 58020
KSQL 
26nm N 
182358Z 27012KT 10SM SCT200 28/08 A2999
KRHV 
26nm NE 
182247Z 32009KT 10SM SCT150 29/05 A3000
KHAF 
28nm NW 
190015Z AUTO 33024G32KT 5SM HZ CLR 18/12 A3001 RMK AO2
KSFO 
32nm N 
182356Z 29025G31KT 10SM SCT200 22/09 A2999 RMK AO2 PK WND 29034/2336 SLP155 T02170094 10250 20172 58018
KE16 
32nm E 
190015Z AUTO 32014G23KT 10SM CLR 31/03 A2996 RMK AO2 PWINO PNO
KOAR 
35nm SE 
134.025 831-384-2967
190015Z AUTO 25019KT 10SM CLR 17/08 A2999 RMK AO2 PWINO
TAF
KSJC 
24nm NE 
181737Z 1818/1918 32007KT P6SM SKC FM182000 33014KT P6SM SKC FM190300 35007KT P6SM SKC FM191700 32011G17KT P6SM SKC
NOTAMs
Click for the latest NOTAMs
NOTAMs are issued by the DoD/FAA and will open in a separate window not controlled by AirNav.

 

 
 

Would you like to see your business listed on this page?

 If your business provides an interesting product or service to pilots, flight crews, aircraft, or users of the Las Trancas Airport, you should consider listing it here.  To start the listing process, click on the button below
 
Add a business
 

Other Pages about Las Trancas Airport

Update a link
 
Copyright © AirNav, LLC. All rights reserved. Privacy Policy  Contact